GALAXY 16 (G-16)

Last updated on Tue Oct 21 2025 00:02:50 GMT+0000 (Coordinated Universal Time)

1 29236U 06023A 25293.46067095 -.00000124 00000+0 00000+0 0 9997 2 29236 0.0216 173.0075 0002625 41.2044 241.8292 1.00273325 70565
UTC large
Height (km)
Speed (km/s)
/
Latitude / Longitude
Inclination (degrees)
Orbital Period (minutes)
Azimuth
Elevation
Range (km)
Doppler Factor

Next 0 passes for location: London (51.5072 / 0.1276)

Sorry there are no passes over London.